RH
55 48 39 33 27 20 8 29 62 70 92 98 93 97 95 95 70 59 61 60 64 74 77 93 93 67 42 96 98 94 96 85 37 28 26 32 23 21 31 43 51 48 43 44 40 40 38
56 57 41 31 22 9 20 49 68 89 98 96 98 90 93 85 70 55 59 72 70 80 91 88 84 75 31 95 93 98 85 79 38 29 27 35 27 22 30 44 51 54 47 36 34 35 33
59 57 37 24 12 17 35 51 75 94 98 93 85 90 95 82 77 75 69 72 68 75 89 95 77 70 34 68 88 95 100 72 42 30 28 56 41 30 32 45 44 57 50 44 28 30 34
39 61 31 20 12 31 26 30 47 95 98 92 87 87 94 80 55 72 74 76 89 70 66 69 67 75 20 90 99 91 86 90 58 45 37 46 73 45 43 46 40 57 68 44 25 27 30
48 50 25 11 26 16 19 20 31 70 90 92 75 79 78 55 45 71 67 80 72 75 70 66 77 79 56 99 89 99 74 96 83 56 65 61 98 78 68 59 69 62 63 49 40 30 29
62 36 22 13 25 10 18 23 33 85 87 91 92 65 50 51 43 61 75 75 72 68 69 64 83 89 79 75 80 99 67 97 81 62 93 79 78 73 80 72 82 89 73 43 29 26 25
62 31 18 20 18 10 12 19 26 84 80 76 81 98 60 34 33 58 72 78 67 76 69 69 64 93 69 80 73 97 78 99 98 91 96 96 88 80 76 82 72 62 44 39 32 40 42
63 31 17 20 13 11 12 15 22 76 55 64 66 86 86 88 85 68 82 86 79 81 76 59 60 99 81 88 91 96 98 99 98 98 95 96 91 74 72 95 81 70 69 65 60 52 51
66 35 17 18 11 13 15 15 22 26 48 68 61 70 86 86 88 98 97 97 65 74 66 81 88 98 99 87 78 92 100 99 98 99 97 93 88 98 91 88 90 89 73 62 70 75 75
66 41 20 16 10 15 18 22 22 32 50 65 69 66 54 68 74 70 69 51 66 78 91 97 98 98 91 96 99 92 99 99 99 99 99 97 99 96 92 86 77 77 70 81 79 82 71
63 45 22 15 13 20 22 31 22 29 43 52 68 65 61 37 43 44 51 55 89 84 90 97 99 99 88 95 92 90 97 96 98 98 97 99 99 98 100 95 92 88 97 98 88 81 79
61 55 28 15 17 19 26 28 34 42 32 43 70 64 54 40 42 62 86 98 95 76 99 92 99 99 100 99 98 100 93 94 98 97 96 97 99 99 99 99 100 94 100 93 87 84 77
53 66 41 16 19 16 29 39 32 38 43 34 47 48 63 61 63 84 90 91 88 93 98 100 98 99 88 98 98 98 99 96 98 96 98 99 99 98 97 99 100 98 95 84 68 79 76
53 69 53 22 19 21 29 38 44 41 48 34 46 52 60 68 76 73 76 73 86 99 97 99 97 96 97 98 100 100 92 98 98 84 94 93 100 96 94 98 93 98 95 70 67 54 62
54 67 66 35 15 22 30 36 42 50 51 56 60 63 60 60 67 69 66 82 97 100 100 96 98 92 93 92 93 93 98 99 95 92 84 89 99 100 99 96 92 97 97 78 69 79 74
64 61 72 60 18 18 25 34 38 47 54 58 60 61 56 60 57 56 56 94 99 87 91 86 81 88 88 90 67 76 92 92 87 83 79 81 95 98 96 97 96 84 86 85 77 75 66
86 59 66 70 30 14 20 26 31 40 46 51 60 53 64 57 74 58 77 100 100 99 88 72 71 82 95 85 88 89 82 81 83 83 77 75 76 100 96 93 88 87 84 71 65 63 68
91 63 65 68 66 30 13 22 23 27 37 48 50 51 58 59 67 98 99 99 96 86 74 64 70 75 77 82 83 81 76 65 78 80 78 77 73 98 98 91 85 96 92 82 57 72 75
92 67 66 66 68 69 27 12 21 23 25 41 50 52 56 56 62 84 94 89 87 81 69 64 67 64 62 68 72 76 77 69 80 78 78 75 74 83 98 97 97 97 90 86 75 62 64
91 82 70 67 71 68 70 25 12 23 22 28 43 56 60 62 62 67 76 78 80 77 73 69 66 68 67 70 67 78 82 82 74 80 86 80 75 62 62 71 76 88 82 83 84 80 72
93 94 76 74 70 68 72 62 17 14 29 26 36 52 51 60 66 66 69 76 78 82 80 71 72 70 72 71 68 72 73 75 78 77 87 89 83 75 69 70 75 77 80 78 80 76 68
97 90 83 78 74 72 73 80 23 11 19 34 30 49 51 52 59 63 67 77 73 68 74 78 76 73 74 80 70 73 67 69 71 72 87 94 88 79 79 76 77 74 74 78 79 75 70
93 91 90 85 79 76 74 78 47 21 10 20 36 31 45 56 58 56 54 63 74 78 74 76 82 90 84 83 90 79 79 89 90 87 88 91 90 79 76 84 88 81 63 68 61 58 58
94 96 95 88 82 81 78 78 79 27 19 11 15 36 36 46 53 60 58 57 62 68 77 85 87 89 90 92 89 88 94 95 92 91 91 88 89 90 86 76 96 77 83 85 71 70 77
96 91 92 89 85 79 79 80 80 28 26 20 15 8 29 39 37 49 60 65 65 64 62 70 84 95 96 92 95 91 87 83 91 92 89 91 96 95 97 96 79 69 81 87 94 93 92
91 87 84 82 87 88 88 89 90 26 28 27 22 18 10 10 32 45 37 54 67 72 73 70 72 88 100 96 94 91 87 88 89 89 85 92 94 99 94 99 96 93 92 91 90 98 94
84 84 83 86 89 91 94 98 96 30 25 28 28 26 21 19 13 13 49 51 55 68 73 74 71 72 80 92 99 97 91 87 94 99 99 100 100 98 97 95 71 76 89 97 98 95 96
83 85 85 85 89 90 94 97 97 68 24 25 28 29 29 26 25 21 17 22 57 64 76 70 77 84 85 85 87 84 92 85 91 94 97 99 91 100 97 92 86 70 92 95 97 93 85
86 89 87 88 94 92 94 97 96 96 59 23 26 28 30 31 31 28 22 18 14 33 83 79 76 77 88 95 91 92 88 83 82 94 93 93 80 80 76 75 75 81 88 92 94 88 82
Wind_Speed
34 33 35 39 41 45 49 42 37 36 35 32 29 28 23 21 20 19 19 20 21 23 23 30 29 26 41 47 39 13 19 28 31 32 31 33 35 38 40 40 37 38 35 35 27 30 30
36 37 39 42 45 48 43 39 38 35 31 32 31 26 23 19 16 14 13 15 16 16 16 18 21 25 36 43 43 15 16 27 32 31 30 31 35 36 35 35 35 30 34 28 28 30 33
40 38 41 43 47 45 43 40 37 34 31 32 28 22 19 16 15 12 12 12 13 14 13 11 14 20 35 46 42 33 22 22 27 26 29 29 30 33 29 31 28 28 21 30 31 30 32
42 39 40 44 46 44 40 42 38 31 29 28 25 19 17 17 15 10 12 13 14 12 12 12 14 18 34 36 30 22 18 17 27 25 25 28 23 27 26 20 24 24 23 21 26 32 34
43 40 42 47 45 43 42 41 38 34 30 29 24 18 17 17 15 11 12 15 20 12 10 11 11 14 25 39 38 15 21 18 24 25 24 27 24 24 24 22 17 22 18 30 23 19 18
40 40 43 45 44 44 42 41 42 33 32 29 26 21 21 18 17 14 13 17 17 9 9 11 11 16 25 37 38 17 23 22 27 27 27 28 24 28 25 26 21 21 18 14 23 26 25
38 40 43 43 43 43 42 43 43 33 34 32 27 24 19 18 17 15 14 15 13 4 7 8 16 12 19 20 37 20 25 26 27 28 34 32 31 36 31 24 13 16 15 18 13 18 18
36 39 42 42 40 40 41 41 40 33 32 31 26 19 18 13 15 16 15 11 7 3 7 11 29 15 15 19 36 16 26 24 29 35 32 31 32 27 26 21 15 13 13 10 11 13 17
36 37 40 40 39 40 37 37 37 38 33 34 29 21 14 9 9 10 9 3 4 6 14 31 24 19 17 21 27 33 25 7 32 36 36 33 22 20 24 26 21 14 13 10 9 9 13
34 34 38 38 34 36 35 36 35 39 38 35 30 27 21 13 9 11 11 14 19 20 13 25 17 9 16 13 27 32 17 10 12 26 35 30 19 21 22 24 20 19 16 12 9 6 3
33 32 35 35 31 31 32 33 34 38 39 38 35 30 24 22 21 21 24 31 19 12 5 6 7 18 17 16 30 21 19 10 9 23 12 11 16 21 23 24 22 15 18 12 10 7 6
32 30 33 34 31 26 29 28 30 36 35 33 34 38 37 25 29 31 23 14 10 7 6 3 16 19 22 21 29 26 23 11 12 10 14 14 14 12 19 19 25 15 14 9 6 5 2
29 28 29 31 29 24 26 28 26 28 28 24 28 28 27 24 18 19 19 16 9 10 7 8 20 20 14 30 15 17 21 18 8 11 9 11 15 9 15 15 14 16 14 2 1 1 3
27 27 26 28 25 24 23 25 26 25 22 18 20 21 21 20 11 13 18 19 14 18 14 27 27 20 21 22 14 14 15 11 10 4 19 5 6 10 10 8 6 12 9 3 4 3 2
29 28 24 24 23 22 22 23 24 24 22 21 23 21 17 15 15 20 17 22 9 11 21 27 21 21 19 14 11 18 14 14 10 9 4 6 6 10 15 10 7 11 8 8 4 1 2
30 28 26 22 21 19 20 19 20 22 24 24 20 15 13 11 10 10 20 18 14 28 28 19 7 9 11 13 16 16 6 11 9 9 6 9 8 11 12 12 10 6 8 5 6 3 3
31 26 26 21 20 17 16 18 16 20 25 26 20 14 16 7 9 12 26 27 26 22 15 6 5 11 15 20 15 16 11 9 12 9 7 8 4 10 11 10 11 12 11 5 6 2 3
28 24 27 24 21 20 15 15 19 16 20 20 20 15 16 8 7 18 17 14 16 12 8 3 5 8 12 18 16 15 11 3 14 9 9 8 4 7 10 7 8 14 14 14 5 5 5
27 23 24 27 23 21 18 16 15 17 15 16 14 11 14 9 8 11 12 13 11 7 4 3 4 8 9 11 9 16 11 8 9 10 5 8 4 7 3 6 11 13 17 17 15 8 8
28 26 22 23 27 24 20 17 15 15 14 12 13 7 9 7 10 7 6 5 4 5 6 4 4 4 8 9 7 14 12 11 9 12 14 8 6 4 5 2 4 8 13 17 19 10 8
28 29 25 24 27 27 23 15 16 13 11 10 9 6 5 4 4 8 9 8 2 4 5 4 8 7 8 8 9 7 17 11 12 8 16 14 6 7 9 9 11 10 8 13 23 24 11
27 29 27 30 27 27 25 16 14 13 10 8 7 5 3 2 2 2 2 5 6 7 2 6 2 6 7 2 4 1 11 13 11 14 15 19 7 5 5 11 14 16 16 17 16 19 25
28 32 32 31 30 27 26 18 13 12 10 9 9 10 8 6 4 2 1 1 5 6 8 10 11 5 4 1 1 4 10 1 1 4 14 12 13 4 3 4 7 13 13 19 22 19 14
31 31 31 32 33 28 26 21 13 13 9 8 10 12 12 12 9 8 7 5 4 3 4 7 6 5 4 5 6 8 5 5 3 2 8 13 9 6 4 3 1 4 4 3 6 7 8
32 30 31 32 32 27 24 19 14 12 9 9 9 10 15 17 16 15 13 12 9 7 5 7 7 6 6 5 6 5 5 5 12 6 8 13 9 3 2 4 10 8 9 5 5 5 9
30 28 27 25 23 21 17 16 14 12 11 9 10 9 8 13 16 18 19 18 16 14 12 10 11 12 10 10 8 5 5 5 7 7 13 12 14 11 5 2 3 2 9 12 6 9 12
25 23 23 22 21 20 17 14 14 12 12 11 11 11 11 9 9 14 16 19 21 20 17 13 14 14 16 16 15 10 8 7 6 8 10 16 16 18 13 6 8 9 10 12 5 7 5
22 23 21 21 21 18 14 12 14 15 13 14 14 13 14 14 13 15 16 18 22 23 22 17 15 20 19 19 13 11 12 12 10 8 9 15 12 11 13 7 10 10 15 9 7 3 5
23 23 24 24 20 16 10 12 14 18 17 15 16 16 17 18 14 17 16 17 21 25 26 25 23 11 16 13 17 12 13 9 14 7 16 13 12 7 11 4 6 8 12 11 9 5 6
Wind_Direction
342 342 341 337 336 334 332 336 333 330 323 318 313 314 304 308 307 302 301 290 274 266 263 258 247 238 206 209 214 206 203 197 200 205 206 204 204 205 207 211 213 215 223 226 224 228 232
346 344 345 341 339 336 339 337 336 334 328 319 318 312 308 302 309 321 321 308 285 272 256 243 244 239 210 206 212 188 191 188 201 200 202 206 206 207 209 211 214 223 224 227 226 228 233
350 351 348 342 339 341 342 344 341 341 330 327 320 312 318 309 300 316 327 329 310 282 265 242 236 238 211 196 204 205 171 178 194 201 202 204 203 205 209 213 216 221 221 228 228 231 237
350 351 348 344 346 344 349 349 344 339 333 329 321 312 319 305 301 298 312 302 314 291 266 240 238 222 208 192 192 211 166 180 184 193 200 204 201 197 206 205 212 213 223 225 231 234 240
349 352 349 346 351 351 355 352 347 341 343 345 333 309 305 307 300 288 313 321 319 299 262 236 220 207 189 185 194 189 178 181 177 184 187 194 184 187 196 199 187 197 221 220 223 230 238
352 352 351 350 355 358 353 355 349 351 351 341 338 314 300 304 296 283 295 315 320 289 239 211 189 173 176 195 196 214 168 175 175 177 181 186 189 193 197 196 192 188 202 210 226 234 241
354 351 353 354 358 359 358 1 355 2 349 343 331 322 300 298 295 284 286 305 323 289 199 202 168 136 175 185 191 196 173 177 176 178 178 183 188 197 196 197 205 210 212 219 219 228 242
354 351 354 355 359 3 3 9 360 3 359 353 345 337 332 311 294 285 283 302 324 112 156 147 146 128 162 174 183 190 175 177 181 181 186 185 200 202 195 186 190 186 191 194 212 231 251
351 350 354 357 0 5 7 12 4 8 9 8 9 6 358 349 350 293 279 287 139 114 131 137 134 131 136 163 188 177 179 177 183 185 186 185 192 194 193 190 193 187 188 202 219 242 269
350 348 354 357 3 7 10 16 10 12 15 18 19 27 34 35 22 56 102 119 118 113 107 149 125 129 155 148 169 174 179 160 124 161 164 182 187 183 187 196 204 211 216 209 235 269 255
347 346 355 356 2 14 14 17 15 16 24 24 36 46 51 69 69 88 105 116 101 92 86 139 98 123 149 150 153 176 177 160 151 143 156 167 159 187 182 195 196 198 203 218 237 252 292
347 345 355 357 360 16 15 10 19 24 29 32 44 49 48 64 99 101 92 62 44 68 62 139 113 136 136 154 159 169 181 163 159 144 142 148 169 169 193 184 189 186 192 196 234 259 248
346 341 352 359 1 9 13 14 8 27 26 36 53 58 53 62 76 30 25 34 52 53 85 118 134 136 132 152 142 144 141 162 147 144 134 123 131 144 191 201 187 170 159 129 33 141 216
344 335 345 358 358 1 10 11 12 19 31 34 17 8 6 15 37 66 78 82 61 82 98 126 121 125 129 152 155 132 159 148 117 176 144 122 111 125 134 136 162 165 175 189 191 187 237
340 337 336 354 354 356 5 11 9 9 16 19 5 355 3 37 83 101 101 80 87 91 125 125 121 121 131 160 160 153 159 155 151 148 159 127 128 147 166 177 165 191 205 197 107 142 281
335 339 332 341 350 350 350 6 4 5 9 7 6 6 30 38 116 101 103 98 106 121 129 134 116 149 153 156 162 176 140 171 165 165 148 150 127 170 185 188 196 193 188 171 200 143 235
330 335 335 329 341 348 335 343 6 357 360 3 15 18 27 65 122 126 107 112 121 132 140 139 173 164 171 171 171 167 175 183 197 183 179 157 139 170 189 202 215 211 203 179 176 198 173
329 333 334 330 325 336 339 317 330 357 352 357 10 21 25 48 109 95 98 120 131 138 152 114 132 174 166 174 176 182 180 204 203 198 203 201 160 150 190 204 215 217 226 218 208 201 205
325 327 329 334 327 320 334 326 305 322 347 350 350 354 19 40 110 102 118 135 149 154 142 81 140 160 179 188 195 203 196 189 184 213 209 181 155 127 158 227 222 219 218 213 216 202 208
317 320 323 331 327 321 316 325 310 302 322 336 348 332 344 27 62 97 131 154 192 212 221 236 175 177 186 188 200 202 199 206 220 212 214 208 196 193 179 155 183 211 223 217 212 208 214
314 315 315 319 321 318 314 314 313 305 299 322 330 2 7 356 57 79 80 66 72 236 226 203 202 212 200 193 208 210 211 213 214 210 217 222 219 233 248 259 265 262 242 226 223 229 236
313 311 312 315 317 316 313 305 305 308 295 287 291 292 306 355 67 53 60 96 64 65 113 196 194 161 168 275 219 322 212 221 214 226 211 213 212 228 259 251 261 264 251 243 240 239 249
309 309 310 312 313 315 312 312 287 295 301 280 258 264 262 263 259 252 239 184 149 104 96 117 124 130 143 193 291 213 167 165 214 225 203 212 220 243 251 265 281 278 257 243 242 248 249
309 308 308 310 307 311 309 305 269 281 286 307 266 247 247 251 257 249 243 223 217 204 175 179 177 169 151 137 141 132 168 214 206 181 194 194 208 223 268 272 255 178 144 66 176 212 224
309 310 310 308 307 308 306 296 266 269 279 293 299 265 248 250 249 250 249 243 232 236 226 220 211 190 203 176 162 159 176 193 212 243 214 210 208 220 236 254 283 243 214 184 115 172 166
311 314 315 318 317 314 307 290 257 264 268 277 288 287 282 257 254 249 246 248 243 238 241 239 230 223 212 212 212 227 213 207 195 210 216 211 221 229 210 249 244 224 188 203 159 178 187
313 318 320 320 314 314 311 284 254 257 270 269 275 279 279 279 267 249 247 247 248 246 247 246 238 232 226 222 225 229 232 208 200 192 200 206 218 221 232 254 271 223 232 219 183 164 215
314 321 320 317 310 310 303 299 274 249 268 271 270 273 273 268 268 263 255 246 246 245 243 244 234 227 220 219 213 221 227 220 224 223 200 199 206 207 224 233 254 212 211 225 174 251 273
319 318 317 314 305 305 297 305 303 262 253 269 272 273 271 268 261 258 252 257 253 245 242 233 229 226 214 210 211 209 215 212 220 215 223 219 210 214 206 253 212 196 203 227 241 265 282